FW9628 Weather Reports


time (UTC)temp
F
wind
direction
speed
knots
gust
knots
rain 1hr
in
rain 24hr
in
rain mn
in
humidity
%
barometer
mb
20260503053037 59 139 4.3 7.0 0.00 0.00 0.00 37 1010.4
20260503051526 57 0 0.9 4.3 0.00 0.00 0.00 47 1010.7
20260503050028 59 139 1.7 2.6 0.00 0.00 0.00 42 1010.7
20260503044525 63 139 1.7 3.5 0.00 0.00 0.00 31 1010.6
20260503043029 63 139 2.6 4.3 0.00 0.00 0.00 29 1010.4
20260503041530 64 139 2.6 3.5 0.00 0.00 0.00 28 1010.3
20260503040035 64 139 1.7 2.6 0.00 0.00 0.00 28 1010.6
20260503034528 65 139 0.9 1.7 0.00 0.00 0.00 27 1010.4
20260503033030 66 139 0.9 1.7 0.00 0.00 0.00 26 1010.4
20260503031528 66 0 0.0 0.9 0.00 0.00 0.00 26 1010.2
20260503030029 67 139 0.0 0.9 0.00 0.00 0.00 26 1010.2
20260503024528 67 139 0.0 0.9 0.00 0.00 0.00 26 1010.3
20260503023027 67 0 0.0 3.5 0.00 0.00 0.00 26 1010.2
20260503021527 67 139 1.7 5.2 0.00 0.00 0.00 27 1010.3
20260503020026 67 139 2.6 7.8 0.00 0.00 0.00 28 1010.3
20260503014527 67 139 4.3 7.0 0.00 0.00 0.00 28 1010.4
20260503013029 67 139 6.1 10.4 0.00 0.00 0.00 28 1010.8
20260503011526 68 139 5.2 9.6 0.00 0.00 0.00 30 1011.0
20260503010031 67 139 5.2 8.7 0.00 0.00 0.00 31 1010.9
20260503004530 68 139 3.5 6.1 0.00 0.00 0.00 30 1010.9
20260503003030 67 139 4.3 12.2 0.00 0.00 0.00 32 1011.2
20260503001529 69 139 7.0 13.0 0.00 0.00 0.00 27 1011.4
20260503000026 70 139 4.3 9.6 0.00 0.00 0.00 28 1011.7
20260502234539 69 139 7.0 13.9 0.00 0.00 0.00 29 1012.1
20260502233027 69 139 6.1 12.2 0.00 0.00 0.00 29 1012.2
20260502231526 69 139 7.0 13.9 0.00 0.00 0.00 30 1012.6
20260502230028 69 139 5.2 12.2 0.00 0.00 0.00 29 1012.7
20260502224529 68 139 4.3 7.8 0.00 0.00 0.00 30 1013.0
20260502223026 68 139 5.2 12.2 0.00 0.00 0.00 29 1013.5
20260502221528 68 139 4.3 8.7 0.00 0.00 0.00 30 1013.7
20260502220030 67 139 6.1 10.4 0.00 0.00 0.00 30 1014.0
20260502214538 67 139 7.8 13.9 0.00 0.00 0.00 32 1014.2
20260502213026 67 139 4.3 10.4 0.00 0.00 0.00 31 1014.4
20260502211534 66 139 2.6 12.2 0.00 0.00 0.00 31 1014.7
20260502210031 67 139 4.3 9.6 0.00 0.00 0.00 30 1015.0
20260502204526 66 139 1.7 9.6 0.00 0.00 0.00 31 1015.1
20260502203028 65 139 4.3 7.8 0.00 0.00 0.00 32 1015.3
20260502201526 65 139 5.2 15.6 0.00 0.00 0.00 30 1015.8
20260502200026 65 140 7.8 11.3 0.00 0.00 0.00 33 1016.0
20260502194525 64 140 5.2 10.4 0.00 0.00 0.00 32 1016.3
20260502193028 65 140 2.6 7.0 0.00 0.00 0.00 32 1016.5
20260502191526 64 140 5.2 9.6 0.00 0.00 0.00 32 1016.6
20260502190032 63 140 4.3 8.7 0.00 0.00 0.00 34 1017.0
20260502184527 63 140 1.7 5.2 0.00 0.00 0.00 34 1017.2
20260502183025 62 140 0.9 4.3 0.00 0.00 0.00 35 1017.4
20260502181534 62 140 1.7 6.1 0.00 0.00 0.00 36 1017.5
20260502163028 58 140 1.7 5.2 0.00 0.00 0.00 44 1018.8
20260502161527 57 140 0.9 4.3 0.00 0.00 0.00 44 1018.9
20260502151526 54 140 0.9 1.7 0.00 0.00 0.00 52 1019.5
20260502123028 39 0 0.0 0.0 0.00 0.00 0.00 77 1019.6
20260502121538 38 0 0.0 0.0 0.00 0.00 0.00 78 1019.5
20260502114528 38 0 0.0 0.0 0.00 0.00 0.00 78 1019.4
20260502113026 39 0 0.0 0.0 0.00 0.00 0.00 78 1019.5
20260502111532 39 0 0.0 0.0 0.00 0.00 0.00 76 1019.5
20260502110033 40 0 0.0 0.0 0.00 0.00 0.00 70 1019.5
20260502104528 42 140 0.0 1.7 0.00 0.00 0.00 67 1019.4
20260502103026 43 140 1.7 2.6 0.00 0.00 0.00 68 1019.4
20260502101526 41 0 0.0 0.0 0.00 0.00 0.00 74 1019.4
20260502091527 43 0 0.0 0.0 0.00 0.00 0.00 67 1019.4
20260502071528 47 0 0.0 1.7 0.00 0.00 0.00 64 1019.0
20260502070027 47 140 0.9 1.7 0.00 0.00 0.00 63 1018.9
20260502064531 48 140 0.9 1.7 0.00 0.00 0.00 64 1018.9
20260502063031 48 0 0.0 0.0 0.00 0.00 0.00 64 1018.9
20260502061526 48 140 0.0 0.9 0.00 0.00 0.00 64 1018.9
20260502060027 49 140 0.9 1.7 0.00 0.00 0.00 63 1018.8
20260502054533 49 140 0.9 1.7 0.00 0.00 0.00 63 1018.8